Bergplaas, South Africa

9:33 AM SAST on January 21, 2018 (GMT +0200)
Bergplaas

Weather History for 68828 - August, 2014

Change the Weather History Date:

Wednesday, August 20, 2014

  Actual Average Record
Temperature  
Mean Temperature 58 °F -  
Max Temperature 70 °F 64 °F - ()
Min Temperature 47 °F 46 °F - ()
Degree Days  
Heating Degree Days 6    
Growing Degree Days 8 (Base 50)    
Moisture  
Dew Point 44 °F    
Average Humidity 58    
Maximum Humidity 88    
Minimum Humidity 22    
Precipitation  
Precipitation 0.02 in - - ()
Sea Level Pressure  
Sea Level Pressure 29.97 in    
Wind  
Wind Speed 6 mph ()    
Max Wind Speed 14 mph    
Max Gust Speed -    
Visibility 8.1 miles    
Events Rain    
T = Trace of Precipitation, MM = Missing Value Source: Averaged Metar Reports

Daily Weather History Graph

Daily Weather History Graph

Search for Another Location

Airport or City:

Trip Planner

Search our weather history database for the weather conditions in past years. The results will help you decide how hot, cold, wet, or windy it might be!

Date:

Astronomy

Aug. 20, 2014 Rise Set
Actual Time 7:04 AM SAST 6:04 PM SAST
Civil Twilight 6:38 AM SAST 6:29 PM SAST
Nautical Twilight 6:09 AM SAST 6:58 PM SAST
Astronomical Twilight 5:40 AM SAST 7:28 PM SAST
Moon 3:14 AM SAST (8/20) 1:48 PM SAST (8/20)
Length of Visible Light 11h 51m
Length of Day
11h 00m
Waning Crescent, 23% of the Moon is Illuminated
Aug 20
Waning Crescent
Aug 25
New
Sep 2
First Quarter
Sep 9
Full
Sep 16
Last Quarter

Hourly Weather History & Observations

Time (SAST) Temp. Dew Point Humidity Pressure Visibility Wind Dir Wind Speed Gust Speed Precip Events Conditions
2:00 AM 51 °F 46 °F 79% 29.99 in 12 mi NNE 4.6 mph - -  
4:00 AM 50.0 °F 41.0 °F 71% 29.95 in 6.2 mi NNW 5.8 mph - N/A   Unknown
5:00 AM 51 °F 41 °F 59% 29.95 in 12 mi West 5.8 mph - -  
5:00 AM 51.8 °F 41.0 °F 67% 29.95 in - West 5.8 mph - N/A   Clear
6:00 AM 50.0 °F 41.0 °F 71% 29.95 in - NE 3.5 mph - N/A   Clear
7:00 AM 50.0 °F 41.0 °F 71% 29.95 in - North 2.3 mph - N/A   Clear
8:00 AM 52 °F 41 °F 56% 29.98 in 12 mi North 4.6 mph - -   Clear
8:00 AM 51.8 °F 41.0 °F 67% 29.98 in - North 4.6 mph - N/A   Clear
9:00 AM 59.0 °F 44.6 °F 59% 29.98 in - North 4.6 mph - N/A   Clear
10:00 AM 62.6 °F 44.6 °F 52% 29.98 in - West 3.5 mph - N/A   Clear
11:00 AM 64 °F 42 °F 33% 29.98 in 12 mi West 5.8 mph - -   Scattered Clouds
11:00 AM 64.4 °F 41.0 °F 42% 29.98 in 6.2 mi West 5.8 mph - N/A   Partly Cloudy
12:00 PM 66.2 °F 39.2 °F 37% 29.95 in 6.2 mi WNW 13.8 mph - N/A   Partly Cloudy
1:00 PM 68.0 °F 39.2 °F 35% 29.95 in 6.2 mi West 12.7 mph - N/A   Partly Cloudy
2:00 PM 69 °F 39 °F 22% 29.92 in 12 mi West 11.5 mph - -   Scattered Clouds
2:00 PM 69.8 °F 39.2 °F 33% 29.92 in 6.2 mi West 11.5 mph - N/A   Partly Cloudy
3:00 PM 69.8 °F 39.2 °F 33% 29.89 in 6.2 mi WNW 13.8 mph - N/A   Partly Cloudy
4:00 PM 68.0 °F 39.2 °F 35% 29.89 in 6.2 mi West 12.7 mph - N/A   Partly Cloudy
5:00 PM 62 °F 46 °F 45% 29.94 in 12 mi SSW 9.2 mph - -   Mostly Cloudy
5:00 PM 62.6 °F 44.6 °F 52% 29.92 in 6.2 mi SSW 9.2 mph - N/A   Mostly Cloudy
6:00 PM 60.8 °F 48.2 °F 63% 29.98 in 6.2 mi WSW 6.9 mph - N/A   Mostly Cloudy
7:00 PM 57.2 °F 50.0 °F 77% 30.01 in 6.2 mi West 2.3 mph - N/A   Mostly Cloudy
8:00 PM 57 °F 51 °F 74% 30.03 in 12 mi WNW 3.5 mph - - Rain Light Rain
8:00 PM 57.2 °F 51.8 °F 82% 30.01 in 6.2 mi WNW 3.5 mph - N/A Rain Light Rain
9:00 PM 55.4 °F 51.8 °F 88% 30.04 in 6.2 mi West 3.5 mph - N/A   Mostly Cloudy
10:00 PM 53.6 °F 50.0 °F 88% 30.04 in 6.2 mi West 8.1 mph - N/A   Mostly Cloudy
11:00 PM 53.6 °F 48.2 °F 82% 30.04 in 6.2 mi WNW 8.1 mph - N/A   Overcast